CAPE
0 0 0 0 0 0 0 0 0 0 0 0 0 0 0 0 0 0 0 0 0 0 0 0 0 0 0 0 0 0 0 0 0 0 0 0 0 0 0 0 0 0 0 0
0 0 0 0 0 0 0 0 0 0 0 0 0 0 0 0 0 0 0 0 0 0 0 0 0 0 0 0 0 0 0 0 0 0 0 0 0 0 0 0 0 0 0 0
0 0 0 0 0 0 0 0 0 0 0 0 0 0 0 0 0 0 0 0 0 0 0 0 0 0 0 0 0 0 0 0 0 0 0 0 0 0 0 0 0 0 0 0
0 0 0 0 0 0 0 0 0 0 0 0 0 0 0 0 0 0 0 0 0 0 0 0 0 0 0 0 0 0 0 0 0 0 0 0 0 0 0 0 0 0 0 0
0 0 0 0 0 0 0 0 0 0 0 0 0 0 0 0 0 0 0 0 0 0 0 0 0 0 0 0 0 0 0 0 0 0 0 0 0 0 0 0 0 0 0 0
0 0 0 0 0 0 0 0 0 0 0 0 0 0 0 0 0 0 0 0 0 0 0 0 0 0 0 0 0 0 0 0 0 0 0 0 0 0 0 0 0 0 0 0
0 0 0 0 0 0 0 0 0 0 0 0 0 0 0 0 0 0 0 1 0 0 0 0 0 0 0 0 0 0 0 0 0 0 0 0 0 0 0 0 0 0 0 0
0 0 0 0 0 0 0 0 0 0 0 0 0 0 0 0 0 0 0 0 0 0 0 0 0 0 0 0 0 0 0 0 0 0 0 0 0 0 0 0 0 0 0 3
0 0 0 0 0 0 0 0 0 0 0 0 0 0 0 0 0 0 0 0 0 0 0 0 0 0 0 0 0 0 0 0 0 0 0 0 0 0 0 0 0 0 0 4
0 0 0 0 0 0 0 0 0 0 0 0 0 0 0 0 0 0 0 0 0 0 0 0 0 0 0 0 0 0 0 0 0 0 0 0 0 0 0 1 1 0 2 6
0 0 0 0 0 0 0 0 0 0 0 0 0 0 0 0 0 0 0 0 0 0 0 0 0 0 0 0 0 0 0 0 0 0 0 0 0 0 2 8 1 0 1 0
0 0 0 0 0 0 0 0 0 0 0 0 0 0 0 0 0 0 0 0 0 0 0 0 0 0 0 0 0 0 0 0 0 0 0 0 0 9 4 3 6 5 6 7
0 0 0 0 0 0 0 0 0 0 0 0 0 0 0 0 0 0 0 0 0 0 0 0 0 0 0 0 0 0 0 0 0 0 1 6 7 5 11 8 5 6 8 7
0 0 0 0 0 0 0 0 0 0 0 0 0 0 0 0 0 0 0 0 0 0 0 0 0 0 0 0 0 0 0 0 0 0 5 10 8 6 4 3 4 5 8 8
0 0 0 0 0 0 0 0 0 0 0 0 0 0 0 0 0 0 0 0 0 0 0 0 0 0 0 0 0 0 0 0 0 3 11 8 7 3 2 10 11 10 9 8
0 0 0 0 0 0 0 0 0 0 0 0 0 0 0 0 0 0 0 0 0 0 0 0 0 0 0 0 0 0 0 0 0 9 10 7 4 2 12 10 7 6 7 6
0 0 0 0 0 0 0 0 0 0 0 0 0 0 0 0 0 0 0 0 0 0 0 0 0 0 0 0 0 0 0 0 9 9 9 7 5 10 9 7 7 5 5 3
0 0 0 0 0 0 0 0 0 29 6 0 0 0 0 0 0 0 0 0 0 0 0 0 0 0 0 0 0 0 1 0 7 6 8 7 12 8 6 6 5 4 5 3
0 0 0 0 0 0 0 2 20 29 16 0 0 0 0 0 0 0 0 0 0 0 0 0 0 0 0 0 0 3 6 8 7 10 12 8 10 6 4 7 5 4 3 2
0 0 0 0 0 0 0 7 17 0 5 0 0 0 0 0 0 0 0 0 0 0 0 0 0 0 0 0 4 3 9 5 10 10 9 5 4 4 3 4 4 3 2 2
0 0 0 0 0 0 0 29 17 11 0 0 0 0 0 0 0 0 0 0 0 0 0 0 0 0 2 4 3 9 4 10 9 8 7 4 3 3 2 1 1 1 1 1
0 0 0 0 0 0 0 0 0 0 0 0 0 0 0 0 0 0 0 0 0 0 0 0 0 0 5 8 10 3 4 13 10 7 6 3 2 4 2 1 0 0 0 0
11 1 0 0 0 0 0 0 0 0 0 0 0 0 0 0 0 0 0 0 0 0 0 0 0 1 4 5 3 3 12 10 10 6 4 3 2 1 1 0 0 0 0 0
0 0 1 1 21 3 0 0 0 0 0 0 0 0 0 0 0 0 0 0 0 0 0 0 0 1 1 0 7 11 13 10 7 5 3 2 0 0 0 0 0 0 0 0
0 0 0 0 7 4 0 0 0 0 0 0 0 0 0 0 0 0 0 0 0 0 0 0 0 2 0 5 1 4 10 8 4 3 2 1 0 0 0 0 0 0 0 0
0 0 0 0 0 0 0 0 0 0 0 0 0 0 0 0 0 0 0 0 0 0 0 0 1 0 0 5 8 8 5 2 2 0 0 0 0 0 0 0 0 0 0 0
CIN
-0 -0 -0 -0 -0 -0 -0 -0 -0 -0 -0 -0 -0 -0 -0 -0 -0 -0 -0 -0 -0 -0 -0 -0 -0 -0 -0 -0 -0 -0 -0 -0 -0 -0 -0 -0 -0 -0 -0 -0 -0 -0 -0 -0
-0 -0 -0 -0 -0 -0 -0 -0 -0 -0 -0 -0 -0 -0 -0 -0 -0 -0 -0 -0 -0 -0 -0 -0 -0 -0 -0 -0 -0 -0 -0 -0 -0 -0 -0 -0 -0 -0 -0 -0 -0 -0 -0 -0
-0 -0 -0 -0 -0 -0 -0 -0 -0 -0 -0 -0 -0 -0 -0 -0 -0 -0 -0 -0 -0 -0 -0 -0 -0 -0 -0 -0 -0 -0 -0 -0 -0 -0 -0 -0 -0 -0 -0 -0 -0 -0 -0 -0
-0 -0 -0 -0 -0 -0 -0 -0 -0 -0 -0 -0 -0 -0 -0 -0 -0 -0 -0 -0 -0 -0 -0 -0 -0 -0 -0 -0 -0 -0 -0 -0 -0 -0 -0 -0 -0 -0 -0 -0 -0 -0 -0 -0
-0 -0 -0 -0 -0 -0 -0 -0 -0 -0 -0 -0 -0 -0 -0 -0 -0 -0 -0 -0 -0 -0 -0 -0 -0 -0 -0 -0 -0 -0 -0 -0 -0 -0 -0 -0 -0 -0 -0 -0 -0 -0 -0 -0
-0 -0 -0 -0 -0 -0 -0 -0 -0 -0 -0 -0 -0 -0 -0 -0 -0 -0 -0 -0 -0 -0 -0 -0 -0 -0 -0 -0 -0 -0 -0 -0 -0 -0 -0 -0 -0 -0 -0 -0 -0 -0 -0 -0
-0 -0 -0 -0 -0 -0 -0 -0 -0 -0 -0 -0 -0 -0 -0 -0 -0 -0 -0 -137 -0 -0 -0 -0 -0 -0 -0 -0 -0 -0 -0 -0 -0 -0 -0 -0 -0 -0 -0 -0 -0 -0 -0 -0
-0 -0 -0 -0 -0 -0 -0 -0 -0 -0 -0 -0 -0 -0 -0 -0 -0 -0 -0 -0 -0 -0 -0 -0 -0 -0 -0 -0 -0 -0 -0 -0 -0 -0 -0 -0 -0 -0 -0 -0 -0 -0 -0 -3
-0 -0 -0 -0 -0 -0 -0 -0 -0 -0 -0 -0 -0 -0 -0 -0 -0 -0 -0 -0 -0 -0 -0 -0 -0 -0 -0 -0 -0 -0 -0 -0 -0 -0 -0 -0 -0 -0 -0 -0 -0 -0 -1 -0
-0 -0 -0 -0 -0 -0 -0 -0 -0 -0 -0 -0 -0 -0 -0 -0 -0 -0 -0 -0 -0 -0 -0 -0 -0 -0 -0 -0 -0 -0 -0 -0 -0 -0 -0 -0 -0 -0 -0 -1 -1 -0 -1 -0
-0 -0 -0 -0 -0 -0 -0 -0 -0 -0 -0 -0 -0 -0 -0 -0 -0 -0 -0 -0 -0 -0 -0 -0 -0 -0 -0 -0 -0 -0 -0 -0 -0 -0 -0 -0 -0 -0 -2 -0 -1 -1 -2 -0
-0 -0 -0 -0 -0 -0 -0 -0 -0 -0 -0 -0 -0 -0 -0 -0 -0 -0 -0 -0 -0 -0 -0 -0 -0 -0 -0 -0 -0 -0 -0 -0 -0 -0 -0 -0 -0 -0 -0 -0 -0 -0 -0 -0
-0 -0 -0 -0 -0 -0 -0 -0 -0 -0 -0 -0 -0 -0 -0 -0 -0 -0 -0 -0 -0 -0 -0 -0 -0 -0 -0 -0 -0 -0 -0 -0 -0 -0 -1 -1 -0 -0 -0 -0 -0 -0 -0 -0
-0 -0 -0 -0 -0 -0 -0 -0 -0 -0 -0 -0 -0 -0 -0 -0 -0 -0 -0 -0 -0 -0 -0 -0 -0 -0 -0 -0 -0 -0 -0 -0 -0 -0 -0 -0 -0 -0 -0 -0 -0 -0 -0 -0
-0 -0 -0 -0 -0 -0 -0 -0 -0 -0 -0 -0 -0 -0 -0 -0 -0 -0 -0 -0 -0 -0 -0 -0 -0 -0 -0 -0 -0 -0 -0 -0 -0 -0 -0 -0 -0 -0 -0 -0 -0 -0 -0 -0
-0 -0 -0 -0 -0 -0 -0 -0 -0 -0 -0 -0 -0 -0 -0 -0 -0 -0 -0 -0 -0 -0 -0 -0 -0 -0 -0 -0 -0 -0 -0 -0 -0 -0 -0 -0 -0 -0 -0 -0 -0 -0 -0 -0
-0 -0 -0 -0 -0 -0 -0 -0 -0 -0 -0 -0 -0 -0 -0 -0 -0 -0 -0 -0 -0 -0 -0 -0 -0 -0 -0 -0 -0 -0 -0 -0 -0 -0 -0 -0 -0 -0 -0 -0 -0 -0 -0 -0
-0 -0 -0 -0 -0 -0 -0 -0 -0 -118 -84 -0 -0 -0 -0 -0 -0 -0 -0 -0 -0 -0 -0 -0 -0 -0 -0 -0 -0 -0 -0 -0 -0 -0 -0 -0 -0 -0 -0 -0 -0 -0 -0 -0
-0 -0 -0 -0 -0 -0 -0 -68 -43 -69 -119 -0 -0 -0 -0 -0 -0 -0 -0 -0 -0 -0 -0 -0 -0 -0 -0 -0 -0 -0 -0 -0 -0 -0 -0 -0 -0 -0 -0 -0 -0 -0 -0 -0
-0 -0 -0 -0 -0 -0 -0 -87 -101 -0 -72 -0 -0 -0 -0 -0 -0 -0 -0 -0 -0 -0 -0 -0 -0 -0 -0 -0 -0 -0 -0 -0 -0 -0 -0 -0 -0 -0 -0 -0 -0 -0 -0 -0
-0 -0 -0 -0 -0 -0 -0 -116 -72 -8 -0 -0 -0 -0 -0 -0 -0 -0 -0 -0 -0 -0 -0 -0 -0 -0 -0 -0 -0 -0 -0 -0 -0 -0 -0 -0 -0 -0 -0 -0 -0 -0 -0 -1
-0 -0 -0 -0 -0 -0 -0 -0 -0 -0 -0 -0 -0 -0 -0 -0 -0 -0 -0 -0 -0 -0 -0 -0 -0 -0 -0 -0 -0 -0 -0 -0 -0 -0 -0 -0 -0 -0 -0 -0 -1 -0 -0 -0
-4 -1 -0 -0 -0 -0 -0 -0 -0 -0 -0 -0 -0 -0 -0 -0 -0 -0 -0 -0 -0 -0 -0 -0 -0 -0 -0 -0 -1 -0 -0 -0 -0 -0 -0 -0 -0 -0 -0 -0 -0 -0 -0 -0
-0 -0 -11 -1 -88 -33 -0 -0 -0 -0 -0 -0 -0 -0 -0 -0 -0 -0 -0 -0 -0 -0 -0 -0 -0 -0 -0 -0 -0 -0 -0 -0 -0 -0 -0 -0 -0 -0 -0 -0 -0 -0 -0 -0
-0 -0 -0 -0 -97 -106 -0 -0 -0 -0 -0 -0 -0 -0 -0 -0 -0 -0 -0 -0 -0 -0 -0 -0 -0 -0 -0 -0 -1 -0 -0 -0 -0 -0 -0 -0 -0 -0 -0 -0 -0 -0 -0 -0
-0 -0 -0 -0 -0 -0 -0 -0 -0 -0 -0 -0 -0 -0 -0 -0 -0 -0 -0 -0 -0 -0 -0 -0 -0 -0 -0 -1 -0 -0 -0 -0 -0 -0 -0 -0 -0 -0 -0 -0 -0 -0 -0 -0
Wind_Speed
3 4 2 5 6 6 3 2 3 1 4 5 5 3 9 10 5 8 10 9 8 9 9 9 7 5 7 6 5 6 4 5 3 1 1 3 3 3 3 4 6 6 5 5
4 5 8 5 3 1 3 3 4 3 5 4 2 6 4 8 6 7 10 8 8 5 6 7 6 7 8 5 5 5 6 5 4 2 3 3 3 4 4 4 6 6 6 6
5 6 7 4 3 2 3 4 4 2 2 1 2 6 8 6 7 10 5 6 5 6 6 2 5 6 2 2 6 7 7 5 4 4 1 2 2 2 2 4 4 5 6 7
2 4 3 1 1 3 3 2 4 5 5 2 4 6 4 4 6 5 5 5 4 5 2 4 5 3 5 7 5 5 5 4 3 1 2 3 3 3 4 3 3 5 7 7
7 1 0 4 2 3 5 2 2 2 4 4 3 4 5 2 3 1 2 2 3 4 5 4 3 5 5 5 3 5 3 2 3 4 4 3 4 3 3 4 6 6 6 7
7 4 4 5 2 2 1 4 8 6 4 3 5 5 3 3 5 3 4 5 6 6 2 2 4 3 5 4 4 4 1 2 4 5 6 5 5 6 5 5 6 7 7 5
5 4 2 5 3 7 5 7 4 6 5 7 4 5 4 3 6 6 5 5 6 5 2 1 1 5 8 7 6 5 2 2 4 5 6 6 6 6 7 8 9 11 8 8
2 7 4 3 6 5 5 9 8 5 2 5 5 3 4 2 5 6 6 6 2 6 5 1 7 4 4 6 5 3 3 5 6 6 6 6 7 5 7 9 9 8 9 9
3 3 3 5 3 5 1 2 6 7 2 3 3 2 6 4 4 3 1 4 4 5 4 7 4 3 4 5 5 5 6 5 4 4 5 7 7 11 12 12 10 9 12 11
7 2 1 2 3 2 5 4 3 4 3 3 4 3 5 6 7 7 3 2 7 5 5 3 2 6 5 6 5 4 2 4 5 6 6 11 13 13 13 11 14 15 13 15
6 6 5 6 4 6 3 2 5 6 6 7 2 7 7 10 9 8 8 3 3 5 2 1 5 5 4 3 2 3 5 7 9 10 13 14 13 13 13 14 16 15 13 15
2 6 3 7 5 4 7 8 6 7 5 3 5 8 6 8 9 7 6 6 2 4 3 4 5 4 5 5 6 6 5 9 12 13 13 14 14 14 15 14 16 15 16 15
6 1 3 9 7 7 2 2 4 4 4 7 7 8 5 6 5 5 5 0 5 3 6 4 4 4 5 6 6 7 10 12 13 12 13 14 15 15 16 16 16 16 16 16
10 4 8 9 6 3 4 6 5 5 4 5 7 8 2 4 4 3 4 4 4 6 5 3 4 6 6 5 7 10 12 11 12 15 15 14 15 16 16 16 16 15 15 15
6 5 4 4 4 0 2 7 8 3 8 6 9 7 5 6 5 5 5 5 7 5 5 6 5 5 5 8 10 11 11 12 14 14 13 15 15 16 16 15 14 14 13 12
2 4 3 2 2 4 4 7 9 8 5 7 4 4 4 5 7 4 4 5 4 5 6 5 5 6 8 10 11 12 12 14 15 13 14 15 15 15 15 13 13 13 12 11
5 6 4 3 1 4 5 5 4 5 6 2 3 3 1 5 6 3 3 5 4 6 5 7 6 6 7 9 10 12 13 14 13 13 14 14 14 14 13 13 12 13 13 12
6 5 3 3 2 1 7 5 8 11 8 13 12 5 3 5 4 5 5 5 6 6 6 5 5 4 6 8 11 12 12 14 12 12 13 13 13 13 13 13 13 13 11 11
7 5 3 4 3 5 7 5 3 6 5 7 8 5 5 4 3 4 6 7 8 7 5 4 2 3 6 11 11 11 11 12 12 13 12 13 12 12 12 12 13 12 11 11
9 3 4 2 5 5 3 6 4 5 2 1 5 3 1 1 5 3 7 9 8 6 4 4 4 6 10 12 10 11 11 12 12 13 12 12 12 12 12 12 12 11 9 11
4 4 14 4 4 6 4 4 3 2 6 3 4 4 6 5 3 5 8 7 6 5 5 5 5 10 9 9 10 10 10 11 11 10 10 11 11 10 11 11 11 11 11 12
3 4 4 3 3 6 6 1 4 7 3 5 5 4 5 3 7 9 7 6 6 6 6 7 8 10 9 10 9 10 11 10 10 10 10 11 10 9 9 11 11 12 11 12
4 7 5 6 8 5 4 3 3 7 6 4 5 3 3 6 8 8 6 6 6 6 6 6 10 10 8 10 9 10 10 9 10 10 11 10 10 9 9 11 11 9 10 10
4 2 4 5 3 5 5 5 6 4 5 4 5 7 6 9 9 7 6 6 6 5 5 7 10 10 9 8 8 8 9 10 10 10 10 10 9 10 10 8 8 8 8 9
4 3 3 2 2 6 3 5 7 5 5 6 7 7 8 12 7 8 6 7 7 5 8 8 9 8 8 8 6 7 9 8 10 10 9 9 8 9 8 8 6 6 4 4
4 3 3 7 7 7 6 7 9 9 7 8 12 7 6 8 9 8 7 7 6 6 7 9 8 6 8 7 9 10 8 8 9 10 6 7 6 6 6 6 6 10 11 15
Wind_Direction
283 62 254 252 183 206 257 289 307 238 212 117 194 216 197 213 196 158 155 153 162 187 218 213 211 174 174 206 206 207 191 219 184 183 248 266 261 274 296 308 313 313 316 332
4 227 221 210 133 94 309 323 338 13 43 89 250 269 251 210 208 167 146 144 166 181 188 206 193 177 186 213 222 226 221 211 200 184 219 218 216 251 251 272 293 298 303 312
171 231 180 179 193 183 42 72 15 45 335 20 135 330 2 358 63 106 122 154 155 170 191 173 113 190 199 242 235 217 202 202 214 210 267 297 310 309 299 264 260 270 286 299
238 259 136 17 112 152 97 4 46 15 60 269 84 276 345 351 53 40 98 95 47 357 77 113 172 231 200 230 229 198 200 201 228 226 231 229 224 253 247 266 276 287 284 282
266 24 278 66 119 94 194 44 45 357 20 23 326 90 301 318 84 192 282 283 334 354 151 115 52 142 212 262 263 192 198 249 271 248 240 276 290 282 293 303 306 293 279 273
230 257 172 161 123 130 274 33 23 36 89 3 260 129 270 180 204 248 269 279 299 322 277 103 168 206 270 11 70 124 138 258 312 331 347 2 357 326 325 304 300 294 291 279
323 260 165 123 57 1 84 56 349 358 13 222 330 67 253 285 173 183 197 244 262 252 250 5 2 332 10 37 64 106 96 353 358 8 3 350 327 310 291 287 298 301 293 288
147 324 167 164 154 185 165 149 150 198 224 273 338 130 244 274 125 131 171 202 288 346 6 246 12 24 61 93 100 80 45 18 6 11 333 313 296 277 287 296 291 287 282 278
131 334 51 88 117 118 255 135 172 111 341 55 243 5 328 227 152 188 282 13 343 340 337 27 72 52 83 99 52 45 31 3 324 321 310 305 301 303 298 293 291 296 294 286
197 142 244 192 66 327 145 172 65 18 129 250 296 217 226 218 228 231 249 334 333 339 42 91 36 41 61 49 51 51 359 313 320 333 316 318 310 309 303 300 303 301 297 293
139 116 275 107 185 175 348 319 65 115 138 163 214 269 216 206 213 203 231 242 276 47 91 56 42 57 70 62 33 344 0 358 349 337 322 317 314 310 308 309 306 301 290 286
124 130 183 224 250 223 178 190 147 127 232 211 158 266 237 211 198 190 235 234 262 52 60 66 79 58 25 9 7 10 3 353 340 325 323 317 309 313 311 308 303 297 291 286
175 48 52 341 354 7 70 210 157 113 82 195 146 260 348 105 135 221 199 256 75 95 85 80 59 24 12 16 3 356 355 343 331 328 323 318 323 316 314 310 304 301 296 291
98 119 151 182 195 197 300 317 306 140 125 222 217 255 142 171 159 122 109 125 89 80 86 93 31 15 21 15 357 354 344 340 331 333 324 325 328 321 312 310 308 303 300 295
103 149 156 193 208 256 284 300 303 227 231 166 247 212 179 183 105 120 92 57 53 65 56 43 23 15 12 1 354 346 341 335 337 329 331 330 321 318 314 315 318 316 312 307
38 161 118 290 317 320 317 295 297 284 294 245 165 66 187 118 106 82 54 60 87 54 63 36 30 35 15 354 344 339 336 340 340 336 333 326 325 321 328 334 335 334 335 335
119 130 97 255 330 17 319 224 316 296 8 258 80 142 59 87 96 79 74 112 68 84 53 39 42 24 354 344 341 339 340 343 340 338 329 329 326 336 341 342 349 356 351 353
117 107 115 196 70 192 240 336 277 94 38 79 80 91 52 153 148 55 46 124 98 71 53 50 36 356 344 343 347 341 348 348 342 333 330 333 342 346 348 355 1 2 357 2
110 109 117 160 181 280 303 341 142 132 45 354 98 62 53 122 132 45 52 81 89 84 84 95 79 358 345 358 351 353 352 349 341 340 348 350 351 354 356 8 8 5 7 10
108 100 142 173 163 212 242 289 342 125 105 244 100 109 165 326 49 287 120 89 81 86 93 113 52 15 14 3 351 354 358 347 353 355 356 353 353 0 7 10 12 8 11 20
121 166 224 166 197 276 212 268 318 160 204 189 134 105 53 47 215 101 99 88 94 83 72 74 45 27 13 354 354 4 353 1 359 0 355 359 2 3 10 21 19 17 22 28
186 159 180 125 122 268 196 232 151 182 191 156 82 71 66 57 87 129 118 106 95 79 52 47 41 29 10 356 3 5 0 2 360 8 5 9 7 13 15 23 23 24 28 32
218 179 181 166 210 213 156 135 124 128 142 165 150 124 88 70 102 138 120 105 88 76 59 51 45 35 18 16 12 7 14 14 16 18 16 17 20 19 27 32 27 29 27 32
273 100 154 130 261 166 132 82 123 160 118 169 111 97 93 101 123 124 120 110 98 69 60 49 53 44 20 356 9 12 20 24 29 25 23 21 26 37 29 34 38 35 24 31
215 128 174 332 57 70 74 152 164 169 185 103 90 116 113 119 134 127 121 108 99 90 67 58 60 44 14 7 19 3 30 35 35 34 33 37 36 34 28 28 28 17 17 44
170 182 134 219 201 137 174 169 153 143 137 130 115 88 95 122 129 129 110 103 108 97 81 75 69 38 18 19 28 40 43 46 57 60 38 20 17 19 18 20 5 350 3 2